Location: Hradec Kralove
(50.2170°N, 15.8330°E)
Time: 11:05:02
(UTC+01:00)

ISS - Pass Details

Date: 25 February 2026
Orbit: 416 x 426 km, 51.6° (Epoch: 10 March)

Event Time Altitude Azimuth Distance (km) Brightness Sun altitude
Exits shadow 05:52:07 14° 285° (WNW) 1,272 -2.0 -9.8°
Maximum altitude 05:54:55 86° 196° (SSW) 423 -3.8 -9.3°
Drops below altitude 10° 05:58:16 10° 108° (ESE) 1,490 0.5 -8.8°
Sets 06:00:21 0° 108° (ESE) 2,351 1.9 -8.5°
